| time (UTC) | temp C | wind direction | speed KPH | gust KPH | rain 1hr cm | rain 24hr cm | rain mn cm | humidity % | barometer mb |
| 20260507040007 | 13 | 25 | 0.0 | 1.6 | 0.00 | 1.09 | 0.00 | 97 | 1006.1 |
| 20260507034506 | 13 | 33 | 0.0 | 3.2 | 0.00 | 1.09 | 1.09 | 97 | 1006.1 |
| 20260507033006 | 12 | 96 | 0.0 | 4.8 | 0.00 | 1.09 | 1.09 | 97 | 1006.3 |
| 20260507031508 | 12 | 5 | 0.0 | 3.2 | 0.00 | 1.09 | 1.09 | 96 | 1006.0 |
| 20260507030016 | 12 | 355 | 0.0 | 3.2 | 1.09 | 1.09 | 1.09 | 96 | 1006.0 |
| 20260507024512 | 12 | 313 | 0.0 | 4.8 | 1.09 | 1.09 | 1.09 | 96 | 1006.0 |
| 20260507023003 | 12 | 30 | 0.0 | 4.8 | 1.09 | 1.09 | 1.09 | 96 | 1006.1 |
| 20260507021502 | 12 | 104 | 0.0 | 4.8 | 1.09 | 1.09 | 1.09 | 96 | 1006.0 |
| 20260507020001 | 12 | 185 | 0.0 | 4.8 | 0.00 | 0.00 | 0.00 | 96 | 1006.2 |
| 20260507014602 | 12 | 163 | 0.0 | 3.2 | 0.00 | 0.00 | 0.00 | 96 | 1006.3 |
| 20260507013059 | 12 | 132 | 0.0 | 6.4 | 0.00 | 0.00 | 0.00 | 96 | 1006.5 |
| 20260507011559 | 12 | 171 | 1.6 | 3.2 | 0.00 | 0.00 | 0.00 | 96 | 1006.5 |
| 20260507010111 | 12 | 82 | 0.0 | 6.4 | 0.00 | 0.00 | 0.00 | 96 | 1006.6 |
| 20260507004557 | 12 | 17 | 0.0 | 3.2 | 0.00 | 0.00 | 0.00 | 96 | 1006.5 |
| 20260507003057 | 12 | 258 | 1.6 | 6.4 | 0.00 | 0.00 | 0.00 | 96 | 1006.5 |
| 20260507001605 | 12 | 155 | 0.0 | 6.4 | 0.00 | 0.00 | 0.00 | 96 | 1006.6 |
| 20260507000056 | 12 | 25 | 0.0 | 8.0 | 0.00 | 0.00 | 0.00 | 96 | 1006.6 |
| 20260506234559 | 12 | 135 | 1.6 | 6.4 | 0.00 | 0.00 | 0.00 | 95 | 1006.4 |
| 20260506233055 | 12 | 96 | 1.6 | 11.3 | 0.00 | 0.00 | 0.00 | 95 | 1006.5 |
| 20260506231607 | 12 | 171 | 0.0 | 6.4 | 0.00 | 0.00 | 0.00 | 95 | 1006.5 |
| 20260506230106 | 12 | 202 | 3.2 | 14.5 | 0.00 | 0.00 | 0.00 | 94 | 1006.4 |
| 20260506224551 | 12 | 157 | 1.6 | 8.0 | 0.00 | 0.00 | 0.00 | 94 | 1006.4 |
| 20260506223049 | 13 | 186 | 1.6 | 6.4 | 0.00 | 0.00 | 0.00 | 94 | 1006.5 |
| 20260506221607 | 13 | 136 | 0.0 | 8.0 | 0.00 | 0.00 | 0.00 | 94 | 1006.7 |
| 20260506220104 | 13 | 168 | 1.6 | 11.3 | 0.00 | 0.00 | 0.00 | 93 | 1006.9 |
| 20260506214548 | 13 | 320 | 1.6 | 8.0 | 0.00 | 0.00 | 0.00 | 92 | 1007.0 |
| 20260506213102 | 13 | 360 | 1.6 | 8.0 | 0.00 | 0.00 | 0.00 | 92 | 1007.0 |
| 20260506211543 | 13 | 107 | 1.6 | 11.3 | 0.00 | 0.00 | 0.00 | 92 | 1007.1 |
| 20260506210053 | 13 | 5 | 0.0 | 6.4 | 0.00 | 0.00 | 0.00 | 92 | 1007.2 |
| 20260506204541 | 13 | 202 | 3.2 | 12.9 | 0.00 | 0.00 | 0.00 | 91 | 1007.3 |
| 20260506203039 | 14 | 169 | 0.0 | 8.0 | 0.00 | 0.00 | 0.00 | 91 | 1007.5 |
| 20260506201544 | 14 | 164 | 0.0 | 14.5 | 0.00 | 0.00 | 0.00 | 91 | 1007.5 |
| 20260506200038 | 15 | 155 | 1.6 | 8.0 | 0.00 | 0.00 | 0.00 | 90 | 1007.6 |
| 20260506194536 | 15 | 261 | 3.2 | 9.7 | 0.00 | 0.00 | 0.00 | 87 | 1007.8 |
| 20260506193036 | 16 | 136 | 0.0 | 4.8 | 0.00 | 0.00 | 0.00 | 84 | 1007.8 |
| 20260506191535 | 16 | 277 | 1.6 | 9.7 | 0.00 | 0.00 | 0.00 | 79 | 1007.8 |
| 20260506190035 | 17 | 235 | 1.6 | 14.5 | 0.00 | 0.00 | 0.00 | 78 | 1008.0 |
| 20260506184535 | 17 | 289 | 1.6 | 9.7 | 0.00 | 0.00 | 0.00 | 76 | 1007.8 |
| 20260506183033 | 17 | 204 | 3.2 | 12.9 | 0.00 | 0.00 | 0.00 | 75 | 1008.0 |
| 20260506181539 | 18 | 134 | 3.2 | 11.3 | 0.00 | 0.00 | 0.00 | 74 | 1008.1 |
| 20260506180033 | 18 | 140 | 1.6 | 14.5 | 0.00 | 0.00 | 0.00 | 74 | 1008.2 |
| 20260506174532 | 18 | 211 | 3.2 | 14.5 | 0.00 | 0.00 | 0.00 | 73 | 1008.5 |
| 20260506173027 | 18 | 59 | 3.2 | 19.3 | 0.00 | 0.00 | 0.00 | 73 | 1008.9 |
| 20260506171538 | 19 | 22 | 3.2 | 19.3 | 0.00 | 0.00 | 0.00 | 71 | 1008.8 |
| 20260506170025 | 20 | 292 | 1.6 | 16.1 | 0.00 | 0.00 | 0.00 | 72 | 1008.7 |
| 20260506164524 | 19 | 144 | 8.0 | 29.0 | 0.00 | 0.00 | 0.00 | 70 | 1009.1 |
| 20260506163023 | 19 | 67 | 1.6 | 11.3 | 0.00 | 0.00 | 0.00 | 71 | 1009.2 |
| 20260506161520 | 19 | 36 | 3.2 | 14.5 | 0.00 | 0.00 | 0.00 | 70 | 1009.3 |
| 20260506160020 | 20 | 205 | 4.8 | 16.1 | 0.00 | 0.00 | 0.00 | 69 | 1009.5 |
| 20260506154519 | 20 | 140 | 3.2 | 17.7 | 0.00 | 0.00 | 0.00 | 70 | 1009.7 |
| 20260506153016 | 19 | 252 | 4.8 | 16.1 | 0.00 | 0.00 | 0.00 | 71 | 1010.0 |
| 20260506151518 | 18 | 244 | 1.6 | 16.1 | 0.00 | 0.00 | 0.00 | 73 | 1009.9 |
| 20260506150012 | 18 | 211 | 4.8 | 12.9 | 0.00 | 0.00 | 0.00 | 73 | 1010.0 |
| 20260506144510 | 18 | 202 | 3.2 | 19.3 | 0.00 | 0.00 | 0.00 | 72 | 1010.0 |
| 20260506143010 | 18 | 319 | 3.2 | 14.5 | 0.00 | 0.00 | 0.00 | 72 | 1009.8 |
| 20260506141508 | 18 | 327 | 1.6 | 17.7 | 0.00 | 0.00 | 0.00 | 73 | 1010.0 |
| 20260506140016 | 18 | 197 | 3.2 | 14.5 | 0.00 | 0.00 | 0.00 | 74 | 1009.7 |
| 20260506134504 | 18 | 162 | 1.6 | 12.9 | 0.00 | 0.03 | 0.00 | 75 | 1010.0 |
| 20260506133102 | 17 | 293 | 0.0 | 8.0 | 0.00 | 0.03 | 0.00 | 78 | 1010.4 |
| 20260506131612 | 16 | 309 | 3.2 | 11.3 | 0.00 | 0.03 | 0.00 | 80 | 1010.5 |
| 20260506130056 | 16 | 109 | 3.2 | 12.9 | 0.00 | 0.03 | 0.00 | 81 | 1010.6 |
| 20260506124550 | 15 | 256 | 1.6 | 6.4 | 0.00 | 0.18 | 0.00 | 82 | 1010.6 |
| 20260506123052 | 15 | 155 | 3.2 | 14.5 | 0.00 | 0.18 | 0.00 | 83 | 1010.6 |
| 20260506121550 | 15 | 283 | 1.6 | 4.8 | 0.00 | 0.18 | 0.00 | 85 | 1010.5 |
| 20260506120050 | 15 | 73 | 0.0 | 11.3 | 0.00 | 0.18 | 0.00 | 85 | 1010.9 |
| 20260506114551 | 15 | 159 | 0.0 | 6.4 | 0.00 | 0.18 | 0.00 | 86 | 1010.8 |
| 20260506113041 | 14 | 128 | 1.6 | 8.0 | 0.00 | 0.18 | 0.00 | 88 | 1011.0 |
| 20260506111539 | 13 | 196 | 1.6 | 6.4 | 0.00 | 0.18 | 0.00 | 89 | 1011.0 |
| 20260506110038 | 13 | 153 | 0.0 | 8.0 | 0.00 | 0.18 | 0.00 | 89 | 1010.9 |
| 20260506104538 | 13 | 136 | 1.6 | 6.4 | 0.00 | 0.18 | 0.00 | 89 | 1010.9 |
| 20260506103035 | 13 | 87 | 1.6 | 6.4 | 0.00 | 0.18 | 0.00 | 90 | 1010.9 |
| 20260506101533 | 13 | 188 | 1.6 | 8.0 | 0.00 | 0.18 | 0.00 | 90 | 1010.9 |
| 20260506100032 | 13 | 331 | 0.0 | 6.4 | 0.00 | 0.18 | 0.00 | 90 | 1010.7 |
| 20260506094529 | 13 | 101 | 0.0 | 6.4 | 0.00 | 0.18 | 0.00 | 89 | 1010.6 |
| 20260506093028 | 13 | 217 | 0.0 | 12.9 | 0.00 | 0.18 | 0.00 | 89 | 1010.6 |
| 20260506091527 | 13 | 153 | 0.0 | 6.4 | 0.00 | 0.18 | 0.00 | 89 | 1010.7 |
| 20260506090026 | 13 | 171 | 0.0 | 6.4 | 0.00 | 0.18 | 0.00 | 89 | 1010.6 |
| 20260506084525 | 13 | 76 | 1.6 | 11.3 | 0.00 | 0.18 | 0.00 | 88 | 1010.8 |
| 20260506083024 | 13 | 74 | 0.0 | 4.8 | 0.00 | 0.18 | 0.00 | 88 | 1010.8 |
| 20260506081523 | 13 | 152 | 1.6 | 9.7 | 0.00 | 0.18 | 0.00 | 88 | 1010.9 |
| 20260506073021 | 13 | 235 | 0.0 | 9.7 | 0.00 | 0.18 | 0.00 | 86 | 1010.8 |
| 20260506071520 | 13 | 227 | 0.0 | 4.8 | 0.00 | 0.18 | 0.00 | 85 | 1010.7 |
| 20260506061517 | 14 | 147 | 0.0 | 6.4 | 0.00 | 0.18 | 0.00 | 83 | 1010.6 |
| 20260506044515 | 13 | 110 | 1.6 | 8.0 | 0.00 | 0.18 | 0.00 | 82 | 1011.2 |
| 20260506043008 | 13 | 80 | 1.6 | 8.0 | 0.00 | 0.18 | 0.00 | 81 | 1011.2 |
| 20260506041505 | 14 | 159 | 1.6 | 6.4 | 0.00 | 0.18 | 0.00 | 80 | 1011.2 |